Location: Guferjoch
(46.7462°N, 8.4506°E)
Time: 00:08:48
(UTC+00:00)

Cosmos 1954 Rocket - Pass Details

Date: 14 July 2020
Orbit: 751 x 782 km, 74.0° (Epoch: 03 August)

Event Time Altitude Azimuth Distance (km) Brightness Sun altitude
Exits shadow 02:08:18 19° 215° (SW) 1,779 5.2 -13.1°
Maximum altitude 02:12:06 67° 294° (WNW) 844 4.1 -12.7°
Drops below altitude 10° 02:17:25 10° 17° (NNE) 2,342 7.7 -12.1°
Sets 02:19:50 0° 21° (NNE) 3,277 8.8 -11.9°
